Location: Calmejanne
(44.7523°N, 1.9418°E)
Time: 04:14:09
(UTC+00:00)

SL-16 R/B - Pass Details

Date: 14 May 2026
Orbit: 841 x 844 km, 71.0° (Epoch: 6 June)

Event Time Altitude Azimuth Distance (km) Brightness Sun altitude
Rises 21:19:56 0° 332° (NNW) 3,413 7.0 -18.0°
Reaches altitude 10° 21:22:24 10° 331° (NNW) 2,474 5.9 -18.3°
Maximum altitude 21:28:03 73° 248° (WSW) 886 2.3 -18.8°
Enters shadow 21:30:46 32° 171° (S) 1,423 2.9 -19.1°
